Weather History for Kelso-Longview, WA

Change the Weather History Date:

Friday, April 4, 2014

  Actual Average Record
Temperature  
Mean Temperature 48 °F -  
Max Temperature 53 °F 54 °F 73 °F (2002)
Min Temperature 42 °F 37 °F 28 °F (1997)
Degree Days  
Heating Degree Days 18    
Moisture  
Dew Point 42 °F    
Average Humidity 77    
Maximum Humidity 87    
Minimum Humidity 58    
Precipitation  
Precipitation 0.14 in - - ()
Sea Level Pressure  
Sea Level Pressure 30.01 in    
Wind  
Wind Speed 4 mph (SSE)    
Max Wind Speed 9 mph    
Max Gust Speed -    
Visibility 10 miles    
Events      
Averages and records for this station are not official NWS values.
T = Trace of Precipitation, MM = Missing Value Source: NWS Daily Summary

Daily Weather History Graph

Daily Weather History Graph

Search for Another Location

Airport:

Trip Planner

Search our weather history database for the weather conditions in past years. The results will help you decide how hot, cold, wet, or windy it might be!

Date:

Astronomy

Apr. 04, 2014 Rise Set
Actual Time 6:45 AM PDT 7:44 PM PDT
Civil Twilight 6:14 AM PDT 8:14 PM PDT
Nautical Twilight 5:38 AM PDT 8:51 PM PDT
Astronomical Twilight 5:00 AM PDT 9:30 PM PDT
Moon 9:55 AM PDT (4/4) 12:19 AM PDT (4/4)
Length of Visible Light 13h 59m
Length of Day
12h 58m
Waxing Crescent, 26% of the Moon is Illuminated
Apr 4
Waxing Crescent
Apr 7
First Quarter
Apr 15
Full
Apr 22
Last Quarter
Apr 28
New

Hourly Weather History & Observations

Time (PDT) Temp. Windchill Dew Point Humidity Pressure Visibility Wind Dir Wind Speed Gust Speed Precip Events Conditions
12:15 AM 48.2 °F - 42.8 °F 82% 30.00 in 10.0 mi SSE 8.1 mph - N/A   Overcast
12:35 AM 46.4 °F 42.9 °F 42.8 °F 87% 30.00 in 10.0 mi SSE 6.9 mph - N/A   Overcast
12:55 AM 46.4 °F 42.9 °F 42.8 °F 87% 30.00 in 6.0 mi South 6.9 mph - N/A   Overcast
1:15 AM 46.4 °F 43.5 °F 42.8 °F 87% 30.00 in 7.0 mi SSE 5.8 mph - 0.01 in   Overcast
1:35 AM 46.4 °F 42.9 °F 42.8 °F 87% 30.00 in 8.0 mi SE 6.9 mph - 0.03 in   Mostly Cloudy
1:55 AM 46.4 °F 45.2 °F 42.8 °F 87% 29.99 in 10.0 mi SE 3.5 mph - 0.03 in   Overcast
2:15 AM 46.4 °F 44.3 °F 42.8 °F 87% 29.99 in 10.0 mi SSE 4.6 mph - 0.01 in   Overcast
2:35 AM 46.4 °F - 42.8 °F 87% 29.99 in 10.0 mi Calm Calm - 0.01 in   Overcast
2:55 AM 46.4 °F 44.3 °F 42.8 °F 87% 29.99 in 10.0 mi SE 4.6 mph - 0.01 in   Overcast
3:15 AM 46.4 °F 45.2 °F 42.8 °F 87% 30.00 in 10.0 mi SE 3.5 mph - N/A   Overcast
3:35 AM 46.4 °F 45.2 °F 42.8 °F 87% 30.00 in 10.0 mi ESE 3.5 mph - N/A   Overcast
3:55 AM 46.4 °F 45.2 °F 41.0 °F 81% 29.99 in 10.0 mi SSE 3.5 mph - N/A   Overcast
4:15 AM 46.4 °F 45.2 °F 41.0 °F 81% 29.99 in 10.0 mi SSE 3.5 mph - N/A   Overcast
4:35 AM 46.4 °F 45.2 °F 41.0 °F 81% 29.99 in 10.0 mi SE 3.5 mph - N/A   Overcast
4:55 AM 46.4 °F - 41.0 °F 81% 29.99 in 10.0 mi Calm Calm - N/A   Overcast
5:15 AM 46.4 °F 45.2 °F 42.8 °F 87% 30.00 in 10.0 mi South 3.5 mph - N/A   Overcast
5:35 AM 46.4 °F 43.5 °F 41.0 °F 81% 29.99 in 10.0 mi ESE 5.8 mph - N/A   Overcast
5:55 AM 46.4 °F 43.5 °F 41.0 °F 81% 30.00 in 10.0 mi SSE 5.8 mph - 0.01 in   Overcast
6:15 AM 46.4 °F - 41.0 °F 81% 30.00 in 10.0 mi Calm Calm - N/A   Overcast
6:35 AM 44.6 °F 43.1 °F 41.0 °F 87% 30.00 in 10.0 mi SE 3.5 mph - N/A   Overcast
6:55 AM 44.6 °F - 39.2 °F 81% 30.00 in 10.0 mi Calm Calm - N/A   Scattered Clouds
7:15 AM 42.8 °F - 39.2 °F 87% 30.01 in 10.0 mi Calm Calm - N/A   Partly Cloudy
7:35 AM 42.8 °F - 37.4 °F 81% 30.01 in 5.0 mi Calm Calm - N/A   Scattered Clouds
7:55 AM 42.8 °F - 39.2 °F 87% 30.02 in 10.0 mi Calm Calm - N/A   Partly Cloudy
8:15 AM 44.6 °F 43.1 °F 39.2 °F 81% 30.03 in 10.0 mi ESE 3.5 mph - N/A   Mostly Cloudy
8:35 AM 46.4 °F 44.3 °F 42.8 °F 87% 30.03 in 10.0 mi SSE 4.6 mph - N/A   Overcast
8:55 AM 46.4 °F 42.9 °F 41.0 °F 81% 30.02 in 10.0 mi SE 6.9 mph - N/A   Overcast
9:15 AM 48.2 °F - 41.0 °F 76% 30.02 in 10.0 mi SSE 5.8 mph - N/A   Overcast
9:35 AM 48.2 °F - 42.8 °F 82% 30.03 in 10.0 mi South 5.8 mph - N/A   Overcast
9:55 AM 48.2 °F - 41.0 °F 76% 30.03 in 10.0 mi South 4.6 mph - N/A   Overcast
10:15 AM 48.2 °F - 42.8 °F 82% 30.03 in 10.0 mi South 5.8 mph - N/A   Overcast
10:35 AM 48.2 °F - 41.0 °F 76% 30.03 in 10.0 mi South 5.8 mph - N/A   Overcast
10:55 AM 51.8 °F - 39.2 °F 62% 30.03 in 10.0 mi SSE 4.6 mph - N/A   Overcast
11:15 AM 51.8 °F - 39.2 °F 62% 30.02 in 10.0 mi SSE 4.6 mph - N/A   Overcast
11:55 AM 51.8 °F - 39.2 °F 62% 30.02 in 10.0 mi South 9.2 mph - N/A   Overcast
12:15 PM 53.6 °F - 39.2 °F 58% 30.01 in 10.0 mi SSE 8.1 mph - N/A   Overcast
12:35 PM 53.6 °F - 39.2 °F 58% 30.01 in 10.0 mi Calm Calm - N/A   Overcast
12:55 PM 51.8 °F - 39.2 °F 62% 30.00 in 10.0 mi South 8.1 mph - N/A   Overcast
1:15 PM 51.8 °F - 37.4 °F 58% 30.01 in 10.0 mi South 9.2 mph - N/A   Overcast
1:35 PM 51.8 °F - 39.2 °F 62% 30.00 in 10.0 mi South 9.2 mph - N/A   Overcast
1:55 PM 51.8 °F - 39.2 °F 62% 30.01 in 10.0 mi South 8.1 mph - N/A   Overcast
2:15 PM 51.8 °F - 39.2 °F 62% 30.01 in 10.0 mi South 4.6 mph - N/A   Overcast
2:35 PM 51.8 °F - 42.8 °F 71% 30.00 in 10.0 mi South 4.6 mph - 0.01 in   Overcast
2:55 PM 51.8 °F - 42.8 °F 71% 30.00 in 8.0 mi SE 4.6 mph - 0.03 in   Overcast
3:15 PM 51.8 °F - 42.8 °F 71% 29.99 in 10.0 mi Calm Calm - N/A   Overcast
3:35 PM 51.8 °F - 41.0 °F 67% 30.00 in 9.0 mi Calm Calm - 0.01 in   Overcast
3:55 PM 51.8 °F - 42.8 °F 71% 30.00 in 10.0 mi Calm Calm - 0.04 in   Overcast
4:15 PM 51.8 °F - 44.6 °F 76% 30.00 in 10.0 mi Calm Calm - N/A   Overcast
4:35 PM 51.8 °F - 42.8 °F 71% 30.00 in 10.0 mi Calm Calm - N/A   Overcast
4:55 PM 51.8 °F - 39.2 °F 62% 30.00 in 10.0 mi Calm Calm - N/A   Mostly Cloudy
5:15 PM 53.6 °F - 41.0 °F 62% 30.00 in 10.0 mi Calm Calm - N/A   Scattered Clouds
5:35 PM 51.8 °F - 41.0 °F 67% 30.00 in 10.0 mi Calm Calm - N/A   Mostly Cloudy
5:55 PM 51.8 °F - 41.0 °F 67% 30.00 in 10.0 mi Calm Calm - N/A   Scattered Clouds
6:15 PM 51.8 °F - 42.8 °F 71% 30.00 in 10.0 mi Calm Calm - N/A   Mostly Cloudy
6:35 PM 51.8 °F - 41.0 °F 67% 30.00 in 10.0 mi Calm Calm - N/A   Overcast
6:55 PM 51.8 °F - 42.8 °F 71% 30.00 in 10.0 mi Calm Calm - N/A   Overcast
7:15 PM 51.8 °F - 42.8 °F 71% 30.00 in 10.0 mi Calm Calm - N/A   Overcast
7:35 PM 51.8 °F - 42.8 °F 71% 30.00 in 10.0 mi Calm Calm - N/A   Overcast
7:55 PM 51.8 °F - 42.8 °F 71% 30.00 in 10.0 mi NNE 3.5 mph - N/A   Overcast
8:15 PM 50.0 °F - 42.8 °F 76% 30.00 in 10.0 mi Calm Calm - N/A   Overcast
8:35 PM 50.0 °F - 42.8 °F 76% 30.00 in 10.0 mi Calm Calm - N/A   Overcast
8:55 PM 50.0 °F - 42.8 °F 76% 30.01 in 10.0 mi Calm Calm - N/A   Overcast
9:15 PM 48.2 °F - 44.6 °F 87% 30.01 in 10.0 mi Calm Calm - N/A   Overcast
9:35 PM 48.2 °F - 44.6 °F 87% 30.01 in 10.0 mi Calm Calm - N/A   Overcast
9:55 PM 48.2 °F - 44.6 °F 87% 30.01 in 10.0 mi Calm Calm - 0.01 in   Overcast
10:15 PM 48.2 °F - 44.6 °F 87% 30.01 in 10.0 mi Calm Calm - N/A   Overcast
10:35 PM 48.2 °F - 44.6 °F 87% 30.02 in 10.0 mi SSE 3.5 mph - N/A   Overcast
10:55 PM 48.2 °F - 44.6 °F 87% 30.02 in 10.0 mi Calm Calm - 0.01 in   Overcast
11:15 PM 48.2 °F - 44.6 °F 87% 30.02 in 10.0 mi Calm Calm - N/A   Overcast
11:35 PM 48.2 °F - 44.6 °F 87% 30.02 in 10.0 mi SSE 3.5 mph - N/A   Overcast
11:55 PM 48.2 °F - 44.6 °F 87% 30.01 in 10.0 mi SE 3.5 mph - N/A   Overcast